Regional Weather Roundup
Issued by NWS

Home | Current Version | Previous Version | Text Only | Print | Product List | Glossary On
Versions: 1 2 3 4 5 6 7 8 9 10 11 12 13 14 15 16 17 18 19 20 21 22 23 24 25 26 27 28 29 30 31 32 33 34 35 36 37 38 39 40 41 42 43 44 45 46 47 48 49 50
000
ASUS43 KIND 220009
RWRIN

WEATHER ROUNDUP FOR INDIANA
NATIONAL WEATHER SERVICE INDIANAPOLIS IN
700 PM EST SUN DEC 21 2014

NOTE: "FAIR" INDICATES FEW OR NO CLOUDS BELOW 12,000 FEET WITH NO
SIGNIFICANT WEATHER AND/OR OBSTRUCTIONS TO VISIBILITY.

* - STATION DOES NOT REPORT WEATHER SUCH AS PRECIPITATION OR FOG.

+ - STATION NOT QUALITY CONTROLLED BY THE NATIONAL WEATHER SERVICE.
    USE DATA WITH CAUTION...ESPECIALLY DEWPOINT AND RELATIVE
    HUMIDITY OBSERVATIONS.

INZ001>003-010>013-019-020-220100-
NORTHWEST INDIANA

CITY           SKY/WX    TMP DP  RH WIND       PRES   REMARKS
GARY /AIRPORT/ CLOUDY    37  27  65 SE7       30.11S
KNOX *+        MOCLDY    32  25  74 SE7       30.11F WCI  26
LA PORTE +     PTCLDY    33  29  85 SE5       30.12S WCI  29
6HR MIN TEMP:  33; 6HR MAX TEMP:  38;

MICHIGAN CITY+ PTCLDY    32  25  74 SE3       30.12S
MONTICELLO +   PTCLDY    32  28  85 SE7       30.12S WCI  26
RENSSELAER +   MOCLDY    34  32  93 SE7       30.11S WCI  28
VALPARAISO     MOCLDY    32  27  81 SE7       30.12R WCI  26
6HR MIN TEMP:  32; 6HR MAX TEMP:  36;


$$

LMZ046-743>745-220100-
SOUTHERN LAKE MICHIGAN

STATION/POSITION TIME  TEMP WIND        PRES
                       AIR  DIR/SP/G
                 (UTC) (F)  (DEG/KT/KT) (MB)

$$

INZ004-005-014>016-021>024-220100-
NORTH CENTRAL INDIANA

CITY           SKY/WX    TMP DP  RH WIND       PRES   REMARKS
GOSHEN         PTCLDY    31  26  82 SE9       30.14S HAZE    WCI  23
6HR MIN TEMP:  31; 6HR MAX TEMP:  38;

LOGANSPORT +   PTCLDY    30  27  86 SE7       30.13F FOG     WCI  23
PERU/GRISSOM   PTCLDY    32  32 100 SE9       30.12F WCI  24
6HR MIN TEMP:  31; 6HR MAX TEMP:  38;

ROCHESTER +    PTCLDY    34  30  86 SE8       30.13F WCI  27
SOUTH BEND     NOT AVBL
WARSAW +       PTCLDY    32  27  80 SE7       30.14F WCI  26

$$

INZ006>009-017-018-025>027-220100-
NORTHEAST INDIANA

CITY           SKY/WX    TMP DP  RH WIND       PRES   REMARKS
ANGOLA *+      CLEAR     30  25  80 SE7       30.16S WCI  23
AUBURN +       PTCLDY    32  27  80 E3        30.18S
FORT WAYNE     PTCLDY    29  25  85 E7        30.17F WCI  22
6HR MIN TEMP:  29; 6HR MAX TEMP:  36;

HUNTINGTON +   CLEAR     30  26  85 SE5       30.15F WCI  25
6HR MIN TEMP:  30; 6HR MAX TEMP:  36;


$$

INZ028-029-035-036-043>045-051>053-220100-
WEST CENTRAL INDIANA

CITY           SKY/WX    TMP DP  RH WIND       PRES   REMARKS
GREENCASTLE +  CLEAR     32  27  80 E7        30.11F WCI  26
LAFAYETTE      PTCLDY    32  26  78 SE8       30.12S WCI  25
6HR MIN TEMP:  32; 6HR MAX TEMP:  38;

TERRE HAUTE    CLEAR     31  26  82 E5        30.11S WCI  26
6HR MIN TEMP:  30; 6HR MAX TEMP:  39;


$$

INZ030>032-037>040-046>048-054>057-064-065-220100-
CENTRAL INDIANA

CITY           SKY/WX    TMP DP  RH WIND       PRES   REMARKS
CP ATTERBURY + CLEAR     30  27  86 MISG      30.14F
FRANKFORT +    PTCLDY    32  29  89 E8        30.13F WCI  24
INDIANAPOLIS   MOCLDY    31  26  82 E8        30.11F WCI  23
6HR MIN TEMP:  30; 6HR MAX TEMP:  36;

-EAGLE CREEK   CLEAR     32  26  78 E3        30.12F
6HR MIN TEMP:  31; 6HR MAX TEMP:  37;

KOKOMO *+      PTCLDY    30  27  86 SE8       30.13F WCI  23
MARION +       PTCLDY    31  26  83 SE6       30.14F WCI  25
MT COMFORT *+  CLEAR     32  25  74 E7        30.14F WCI  26
SHELBYVILLE    CLEAR     32  26  78 E7        30.13F WCI  26
6HR MIN TEMP:  32; 6HR MAX TEMP:  39;

ZIONSVILLE +   CLEAR     32  26  80 SE5       30.13F HAZE    WCI  27
6HR MIN TEMP:  32; 6HR MAX TEMP:  37;


$$

INZ033-034-041-042-049-050-058-059-220100-
EAST CENTRAL INDIANA

CITY           SKY/WX    TMP DP  RH WIND       PRES   REMARKS
MUNCIE         CLEAR     29  26  89 SE5       30.15F FOG     WCI  24
6HR MIN TEMP:  29; 6HR MAX TEMP:  37;


$$

INZ060-061-067>069-081>083-085>088-220100-
SOUTHWEST INDIANA

CITY           SKY/WX    TMP DP  RH WIND       PRES   REMARKS
EVANSVILLE     CLEAR     37  29  72 CALM      30.11S
6HR MIN TEMP:  37; 6HR MAX TEMP:  46;

HUNTINGBURG *+ CLEAR     36  27  69 SE5       30.13R
6HR MIN TEMP:  36; 6HR MAX TEMP:  43;

WASHINGTON +   CLEAR     33  27  77 SE6       30.12R WCI  27
6HR MIN TEMP:  33; 6HR MAX TEMP:  41;


$$

INZ062-063-066-070>080-084-089>092-220100-
SOUTH CENTRAL AND SOUTHEAST INDIANA

CITY           SKY/WX    TMP DP  RH WIND       PRES   REMARKS
BLOOMINGTON    CLEAR     31  27  85 SE6       30.11F WCI  25
6HR MIN TEMP:  31; 6HR MAX TEMP:  39;


$$



USA.gov is the U.S. government's official web portal to all federal, state and local government web resources and services.